www.pogodaiklimat.ru

Погода и климат >> Архив погоды >> Ливан >> Триполи


ПОГОДА в Триполи

  • Прогноз погоды в Триполи
  • Монитор погоды в Триполи

АРХИВ ПОГОДЫ в Триполи

Время (UTC), дата Ветер
(напр.,м/с)
 
Видим.   Явления Облачность Т
(С)
Тd
(С)
f
(%)
Тe
(С)
Тes
(С)
Комфортность P
(гПа)
Po
(гПа)
Тmin
(С)
Tmax
(С)
R
(мм)
R24
(мм)
S
(см)
03 10.07 Ю 1 5000 м ясно +23.0 +20.3 85 +30 +30 очень
душно
1006.8 1006.2
06 10.07 З 2 10 км ясно +28.2 +21.0 65 +35 +45 очень
душно
1006.4 1005.8 +23.0
09 10.07 ЮЗ 5
{6}
10 км 3/3 720 м
[Cu hum]
+28.9 +22.5 68 +38 +48 очень
душно
1007.3 1005.8 290
12 10.07 З 5 10 км 3/3 720 м
[Cu hum]
+30.6 +22.8 63 +40 +46 очень
душно
1005.4 1004.8
15 10.07 З 3 10 км ясно +29.7 +22.5 65 +39 +41 очень
душно
1004.6 1004.0
18 10.07 ЮЗ 1 10 км ясно +27.0 +22.5 76 +35 +35 очень
душно
1004.6 1004.0 +30.6
21 10.07 штиль 0 8000 м ясно +25.4 +22.2 82 +33 +33 очень
душно
1004.6 1004.0
00 11.07 Ю 2 10 км ясно +25.8 +22.2 81 +34 +34 очень
душно
1005.0 1003.5 0.0
03 11.07 штиль 0 8000 м 1/1 720 м
[Cu hum]
+24.6 +22.2 87 +32 +32 очень
душно
1003.9 1003.3
06 11.07 З 2 8000 м ясно +28.7 +21.4 65 +37 +46 очень
душно
1004.4 1003.8 +23.5
09 11.07 З 5 10 км 1/1 720 м
[Cu hum]
+30.2 +22.9 65 +40 +50 очень
душно
1005.3 1004.7
12 11.07 З 3 10 км ясно +30.8 +23.1 64 +41 +54 опасность
перегрева
1004.1 1003.5
15 11.07 З 3 10 км ясно +30.4 +23.4 66 +41 +43 опасность
перегрева
1003.5 1002.9
18 11.07 штиль 0 10 км ясно +27.6 +23.2 77 +37 +37 очень
душно
1005.0 1004.4 +31.3
21 11.07 штиль 0 10 км ясно +26.2 +23.1 83 +35 +35 очень
душно
1005.0 1004.4
00 12.07 штиль 0 8000 м ясно +25.3 +22.2 83 +33 +33 очень
душно
1003.9 1003.3
03 12.07 СЗ 1 20 км 8/8 600 м
[Cu med, cong]
+13.5 +4.9 56 +15 +15 1011.5 824.8 320
06 12.07 Ю 7 10 км 1/1 720 м
[Cu hum]
+30.0 +20.6 57 +37 +39 очень
душно
1004.6 1004.0 +23.6
09 12.07 ЮЗ 8 10 км 3/3 720 м
[Cu hum]
+31.9 +21.9 56 +41 +43 опасность
перегрева
1005.6 1005.0
12 12.07 ЮЗ 10 10 км 1/1 720 м
[Cu hum]
+33.0 +22.1 53 +42 +42 опасность
перегрева
1005.2 1004.6
15 12.07 ЮЗ 4 10 км 1/1 720 м
[Cu hum]
+31.8 +21.3 54 +40 +41 очень
душно
1005.4 1004.8
18 12.07 <100 м 5/0
[]
+27.7 +22.7 74 1009.0 1007.5
21 12.07 Ю 4 10 км ясно +27.6 +20.2 64 +34 +34 очень
душно
1007.4 1006.8
00 13.07 З 4 10 км 3/3 720 м
[Cu hum]
+26.4 +19.7 67 +32 +32 очень
душно
1007.1 1006.5
03 13.07 З 5 10 км 1/1 720 м
[Cu hum]
+26.0 +18.9 65 +31 +31 очень
душно
1006.9 1006.3
06 13.07 ЮЗ 4 10 км 1/1 720 м
[Cu hum]
+28.0 +19.5 60 +34 +39 очень
душно
1007.9 1007.3 +25.9
09 13.07 З 3 10 км 3/3 720 м
[Cu hum]
+30.0 +18.6 50 +35 +47 очень
душно
1008.1 1007.5
12 13.07 З 5 10 км 3/3 720 м
[Cu hum]
+30.1 +18.6 50 +35 +40 очень
душно
1007.7 1008.0
21 13.07 штиль 0 10 км 1/1 720 м
[Cu hum]
+24.6 +18.3 68 +29 +29 душно 1008.6 1008.0
00 14.07 ЮЗ 2 10 км 1/1 720 м
[Cu hum]
+24.7 +17.9 66 +29 +29 душно 1007.6 1007.0
03 14.07 ЮЗ 1 10 км 1/1 720 м
[Cu hum]
+22.6 +16.8 70 +27 +27 душно 1007.6 1007.0
06 14.07 Ю 1 10 км 1/1 720 м
[Cu hum]
+28.1 +16.7 50 +32 +42 душно 1007.8 1007.2 +22.4
09 14.07 З 4 10 км 1/1 720 м
[Cu hum]
+29.9 +19.1 52 +35 +47 очень
душно
1007.4 1006.8
12 14.07 ЮЗ 4 10 км 1/1 720 м
[Cu hum]
+30.2 +20.6 56 +37 +46 очень
душно
1006.8 1006.2
15 14.07 З 5 10 км 6/6 720 м
[Cu hum]
+28.8 +20.5 61 +36 +36 очень
душно
1006.8 1006.2
18 14.07 ЮЗ 3 10 км 1/1 720 м
[Cu hum]
+26.8 +19.3 63 +32 +32 очень
душно
1007.1 1006.5 +30.5
21 14.07 ЮЗ 3 10 км 1/1 720 м
[Cu hum]
+25.8 +19.4 68 +31 +31 очень
душно
1006.9 1006.3
00 15.07 ЮЗ 2 10 км 1/1 720 м
[Cu hum]
+24.8 +18.6 68 +29 +29 душно 1005.8 1005.2
03 15.07 ЮЗ 4 10 км 1/1 720 м
[Cu hum]
+24.5 +17.9 67 +29 +29 душно 1006.1 1005.5
06 15.07 ЮЗ 6 15 км 1/1 720 м
[Cu hum]
+28.5 +16.9 49 +32 +35 душно 1006.8 1006.2 +24.3
09 15.07 З 2 15 км 3/3 720 м
[Cu hum]
+30.0 +18.5 50 +35 +49 очень
душно
1006.9 1006.3
12 15.07 З 5 15 км 1/1 720 м
[Cu hum]
+30.7 +19.9 53 +37 +44 очень
душно
1007.0 1006.4
15 15.07 З 5 15 км 1/1 720 м
[Cu hum]
+29.5 +19.6 55 +35 +36 очень
душно
1006.8 1006.2
18 15.07 ЮЗ 4 10 км 1/1 720 м
[Cu hum]
+27.3 +20.2 65 +34 +34 очень
душно
1007.6 1007.0 +30.8
21 15.07 ЮЗ 3 10 км 1/1 720 м
[Cu hum]
+26.0 +19.7 68 +32 +32 очень
душно
1007.7 1007.1
00 16.07 ЮЗ 1 10 км 1/1 720 м
[Cu hum]
+25.5 +17.1 60 +29 +29 душно 1007.1 1006.5
03 16.07 Ю 2 10 км 1/1 720 м
[Cu hum]
+24.8 +18.7 69 +30 +30 душно 1006.9 1006.3
06 16.07 З 3 10 км 1/1 720 м
[Cu hum]
+28.1 +20.1 62 +34 +41 очень
душно
1008.0 1007.4 +24.6
09 16.07 ЮЗ 5
{8}
20 км ясно +29.7 +19.6 55 +36 +46 очень
душно
1010.0 1008.5
12 16.07 З 6 15 км 1/1 720 м
[Cu hum]
+30.8 +18.8 49 +36 +41 очень
душно
1007.6 1007.0
15 16.07 Ю 6 15 км 1/1 720 м
[Cu hum]
+29.3 +20.3 58 +36 +37 очень
душно
1007.4 1006.8
18 16.07 ЮЗ 2 10 км 1/1 720 м
[Cu hum]
+26.8 +20.6 69 +33 +33 очень
душно
1007.6 1007.0 +31.3
21 16.07 штиль 0 10 км 3/3 720 м
[Cu hum]
+25.1 +20.5 76 +31 +31 очень
душно
1007.8 1007.2

 

Местоположение метеостанции Триполи (Ливан): широта 34.44 долгота 35.81 высота над уровнем моря 5 м.

В архиве по умолчанию представлена погода в Триполи за последнюю неделю. Архивные данные за месяц целиком и за предыдущие месяцы, начиная с января 2011 года, Вы можете получить, выбрав интересующий диапазон дат из раскрывающегося списка и нажав кнопку "Ввод!".


*Определитесь, кто Вы:
робот инопланетянин человек

Внимание! Время в таблицах - всемирное. Для получения местного времени необходимо прибавить поправку, которая равна 2 ч.

Смотрите также архив погоды в соседних городах и на ближайших метеорологических станциях:

Погода в Сафире (Сирия) (51 км)
Погода в Хоуч-аль-Омаре (Ливан) (69 км)
Погода в Бейруте (Ливан) (75 км)
Погода в Эн-Набке (Сирия) (95 км)
Погода в Аэропорту Басиля Эль-Асада (Сирия) (107 км)
Погода в Хаме (Сирия) (114 км)
Погода в Латакии (Сирия) (121 км)
Погода в Дамаске (Сирия) (131 км)
Погода в Рош-ха-Никра (Израиль) (165 км)
Погода в Цфате (Израиль) (166 км)

Пояснения к столбцам:

Ветер - указаны скорость ветра в м/с - средняя за 10 мин, порывы в срок и между сроками (в фигурных скобках) и направление, откуда дует ветер: С - северный, СВ - северо-восточный, В - восточный, ЮВ - юго-восточный, Ю - южный, ЮЗ - юго-западный, З - западный, СЗ - северо-западный.
Видимость - горизонтальная дальность видимости в метрах или километрах. При видимости от 1 до 10 км при отсутствии осадков обычно наблюдается дымка, при ухудшении видимости до 1 км и менее - туман. В сухую погоду видимость может ухудшаться дымом, пылью или мглою.
Явления - указаны атмосферные явления, наблюдавшиеся в срок или в последний час перед сроком; фигурными скобками обозначены явления, наблюдавшиеся между сроками (за 1-3 часа до срока); квадратными скобками обозначены град или гололедные отложения с указанием их диаметра в мм.
Облачность - указаны через наклонную черту общая и нижняя облачность в баллах и высота нижней границы облаков в метрах; квадратными скобками обозначены формы облаков: Ci - перистые, Cs - перисто-слоистые, Cc - перисто-кучевые, Ac - высококучевые, As - высокослоистые, Sc - слоисто-кучевые, Ns - слоисто-дождевые, Cu - кучевые, Cb - кучево-дождевые. Подробнее классификацию облаков см. в Атласе облаков (PDF).
T - Температура воздуха - температура, измеренная на высоте 2 м над землей.
Td - Температура точки росы - температура, при понижении до которой содержащийся в воздухе водяной пар достигнет насыщения.
f - Относительная влажность воздуха - влажноcть воздуха, измеренная на высоте 2 м над землей.
Te - Эффективная температура - температура, которую ощущает одетый по сезону человек в тени. Характеристика душности погоды. При расчете учитывается влияние влажности воздуха и скорости ветра на теплоощущения человека.
Tes - Эффективная температура на солнце - температура, которую ощущает человек, с поправкой на солнечный нагрев. Характеристика знойности погоды. Зависит от высоты солнца над горизонтом, облачности и скорости ветра. Ночью, в пасмурную погоду, а также при ветре 12 м/с и более поправка равна нулю.
P - Атмосферное давление - приведенное к уровню моря атмосферное давление.
Po - Атмосферное давление - измеренное на уровне метеостанции атмосферное давление.
Tmin - Минимальная температура - минимум температуры воздуха на высоте 2 м над землей.
Tmax - Максимальная температура - максимум температуры воздуха на высоте 2 м над землей.
R - Количество осадков - Количество выпавших осадков за период времени, мм. При наведении курсора мыши на число - период времени, за который выпало указанное количество осадков.
R24 - Количество осадков - Количество выпавших осадков за 24 часа, мм.
S - Снежный покров - Высота снежного покрова, см. При наведении курсора мыши на число - состояние снежного покрова и степень покрытия местности в баллах.